[[{"header":{"parameterUnit":"m.s-1","parameterCategory":2,"la1":30.2991,"la2":30.254,"lo1":-89.0895,"lo2":-89.0444,"dx":0.0017,"dy":0.0017,"nx":28,"ny":28,"refTime":"2023-01-20T09:00:00:Z","depth":"0","parameterNumber":2,"parameterNumberName":"U-component_of_CURRENTS"},"data":[0,0,0,0,0,0,0,0,0,0,0,0,0,0,0,0,0,0,0,0,0,0,0,0,0,0,0,0,0,0,0,0,0,0,0,0,0,0,0,0,0,0,0,0,0,0,0,0,0,0,0,0,0,0,0,0,0,0,0.3291,0.3292,0,0.3309,0.3309,0.3309,0.3295,0.3294,0.3294,0.3294,0.3276,0.3276,0.3276,0,0,0,0,0,0,0,0,0,0,0,0,0,0.3286,0.3286,0.3291,0.3292,0.3292,0.3309,0.3309,0.3309,0.3295,0.3294,0.3294,0.3294,0.3277,0.3276,0.3276,0,0,0,0,0,0,0,0,0,0,0,0,0,0.3291,0.3286,0.3291,0.329,0.329,0.3309,0.3309,0.3309,0.3295,0.3294,0.3294,0.3294,0.3277,0.3276,0.3276,0.3282,0,0,0.3275,0.3275,0,0,0,0,0,0,0,0,0.3291,0.3291,0.329,0.329,0.3291,0.3303,0.3301,0.3299,0.3295,0.3289,0.3294,0.3293,0.3285,0.3284,0.3283,0.3281,0.328,0.3275,0.3275,0.3275,0.3275,0,0,0,0,0,0,0,0.329,0.329,0.3294,0.329,0.3291,0.3303,0.3303,0.3301,0.3285,0.329,0.3289,0.3298,0.3284,0.3283,0.3283,0.328,0.3275,0.3275,0.3275,0.3274,0.3324,0.3326,0,0,0,0,0,0,0.3294,0.329,0.3294,0.3295,0.3294,0.3304,0.3303,0.3296,0.3286,0.3286,0.3298,0.3297,0.3284,0.3283,0.3282,0.3322,0.3275,0.3274,0.3274,0.3323,0.3325,0.3326,0,0,0,0,0,0,0.3294,0.3294,0.3293,0.3297,0.3298,0.3304,0.3297,0.3297,0.3301,0.3294,0.3291,0.3304,0.3284,0.3282,0.3293,0.332,0.3274,0.3274,0.3321,0.3323,0.3325,0.3381,0,0,0,0,0,0,0.3293,0.3293,0.3289,0.3297,0.3298,0.3308,0.3298,0.3297,0.3309,0.3307,0.3298,0.3296,0.3283,0.3294,0.3293,0.3319,0.3274,0.3319,0.3322,0.3325,0.3377,0.3385,0.3391,0,0,0,0,0,0.3292,0.3285,0.3288,0.3289,0.3292,0.3309,0.331,0.3312,0.3309,0.3313,0.3314,0.3296,0.3312,0.3295,0.3293,0.3319,0.3318,0.3321,0.3324,0.3374,0.3383,0.3391,0,0,0,0,0,0,0.3263,0.3284,0.3287,0.328,0.3298,0.3308,0.3311,0.3318,0.3322,0.332,0.331,0.3308,0.3333,0.3319,0.3301,0.3344,0.3314,0.3317,0.3352,0.3361,0.3368,0.339,0.3273,0,0,0,0,0,0.3261,0.3269,0.3287,0.3282,0.3292,0.3305,0.3313,0.3319,0.3326,0.3327,0.3323,0.3326,0.3346,0.3346,0.3353,0.3369,0.3375,0.3388,0.3395,0.3401,0.342,0.3454,0.3466,0.3337,0.3337,0.3337,0,0,0.3249,0.3261,0.3264,0.328,0.329,0.3316,0.3307,0.3323,0.3349,0.3325,0.3346,0.335,0.3357,0.3383,0.3392,0.3373,0.344,0.3405,0.341,0.3426,0.3459,0.3471,0.3483,0.334,0.3339,0.3339,0,0,0.3242,0.324,0.3253,0.3276,0.3304,0.3319,0.3329,0.3346,0.3356,0.3381,0.3383,0.3409,0.3412,0.3435,0.3447,0.3498,0.3481,0.3493,0.354,0.3574,0.3584,0.3594,0.3615,0.3626,0.3491,0.3491,0.3491,0,0.3231,0.3242,0.3259,0.3285,0.3305,0.3326,0.335,0.3374,0.3393,0.3409,0.3394,0.3442,0.3447,0.3504,0.3528,0.3517,0.3523,0.3505,0.3583,0.3593,0.3602,0.362,0.3632,0.3494,0.3494,0.3494,0.3493,0,0.3242,0.3257,0.3265,0.331,0.3335,0.3355,0.3398,0.3422,0.3436,0.3459,0.3506,0.352,0.3547,0.356,0.3562,0.3633,0.3613,0.3591,0.356,0.3618,0.3634,0.3645,0.3499,0.3498,0.3497,0.3496,0,0,0.3201,0.3262,0.3266,0.3288,0.3349,0.3366,0.3424,0.3474,0.3516,0.3537,0.3586,0.3635,0.3638,0.3655,0.3661,0.37,0.3773,0.3677,0.3677,0.3696,0.3838,0.3806,0.3814,0.3757,0.3759,0.3761,0.3822,0,0.3204,0.3246,0.3284,0.3328,0.3351,0.3402,0.3453,0.3507,0.3553,0.3606,0.3642,0.3693,0.3676,0.37,0.3736,0.3775,0.3805,0.3758,0.3782,0.3783,0.3746,0.3828,0.3692,0.3734,0.3832,0.3834,0.3836,0,0.32,0.3231,0.3271,0.3334,0.3349,0.3389,0.3472,0.3526,0.3621,0.3658,0.3716,0.3744,0.3825,0.3792,0.3878,0.3845,0.3851,0.3869,0.387,0.3832,0.3772,0.3693,0.375,0.3683,0.3852,0.3851,0.385,0,0.3152,0.3216,0.3243,0.3267,0.3351,0.3383,0.3434,0.3533,0.3586,0.3704,0.3745,0.3828,0.3872,0.391,0.3948,0.3918,0.403,0.3983,0.3955,0.3951,0.384,0.3823,0.3835,0.4036,0.4036,0.4036,0.4035,0,0.313,0.3151,0.3223,0.324,0.3279,0.3355,0.3419,0.3494,0.3604,0.3666,0.3761,0.3826,0.3905,0.3967,0.3984,0.4017,0.4052,0.3994,0.398,0.3854,0.3839,0.3777,0.3745,0.4038,0.4037,0.4037,0.4037,0,0.307,0.312,0.3152,0.3232,0.3257,0.3287,0.3392,0.344,0.3563,0.3651,0.369,0.3841,0.3944,0.4005,0.4091,0.4059,0.3994,0.409,0.3939,0.3907,0.3803,0.3778,0.3629,0.3514,0.4074,0.4073,0.4073,0,0.3042,0.3055,0.3125,0.3139,0.3174,0.3232,0.3269,0.3401,0.3456,0.365,0.3676,0.3834,0.3916,0.4048,0.4062,0.4098,0.3981,0.3967,0.3892,0.3812,0.3774,0.3607,0.3507,0.376,0.3757,0.3755,0.3753,0,0.2987,0.3015,0.3043,0.3066,0.3098,0.3132,0.3199,0.3236,0.3389,0.3474,0.36,0.3702,0.3867,0.3885,0.3964,0.3962,0.3789,0.3922,0.3875,0.3578,0.336,0.3235,0.3704,0.3733,0.3735,0.3737,0.3738,0.3739,0.2942,0.2938,0.2968,0.2978,0.3005,0.3009,0.2999,0.3083,0.3152,0.325,0.3436,0.3533,0.3683,0.3799,0.3773,0.3691,0.3656,0.3593,0.3585,0.3435,0.3273,0.3708,0.3698,0.37,0.3701,0.3703,0.3704,0,0.2857,0.2861,0.2872,0.2867,0.2837,0.2892,0.2921,0.2891,0.2907,0.307,0.3163,0.3319,0.3371,0.3468,0.3494,0.3385,0.3183,0.3303,0.3043,0.2973,0.3406,0.3345,0.3213,0.3213,0.3213,0.3214,0.3214,0.3214,0.2816,0.2781,0.2776,0.2691,0.2683,0.2601,0.2586,0.2579,0.2651,0.2726,0.2822,0.2971,0.3227,0.3329,0.3262,0.3174,0.2932,0.2793,0.2782,0.3127,0.3152,0.3176,0.3113,0.2934,0.2934,0.2198,0.2192,0.2189]},{"header":{"parameterUnit":"m.s-1","parameterCategory":2,"la1":30.2991,"la2":30.254,"lo1":-89.0895,"lo2":-89.0444,"dx":0.0017,"dy":0.0017,"nx":28,"ny":28,"refTime":"2023-01-20T09:00:00:Z","depth":"0","parameterNumber":3,"parameterNumberName":"V-component_of_CURRENTS"},"data":[0,0,0,0,0,0,0,0,0,0,0,0,0,0,0,0,0,0,0,0,0,0,0,0,0,0,0,0,0,0,0,0,0,0,0,0,0,0,0,0,0,0,0,0,0,0,0,0,0,0,0,0,0,0,0,0,0,0,-0.0015,-0.0016,0,-0.0065,-0.0066,-0.0066,-0.0096,-0.0097,-0.0097,-0.0097,-0.0159,-0.0161,-0.0162,0,0,0,0,0,0,0,0,0,0,0,0,0,0.001,0.001,-0.0015,-0.0016,-0.0016,-0.0065,-0.0066,-0.0066,-0.0096,-0.0097,-0.0097,-0.0097,-0.0159,-0.0161,-0.0163,0,0,0,0,0,0,0,0,0,0,0,0,0,-0.0016,0.001,-0.0015,-0.0037,-0.004,-0.0065,-0.0066,-0.0066,-0.0096,-0.0097,-0.0097,-0.0097,-0.0158,-0.016,-0.0163,-0.0173,0,0,-0.017,-0.0171,0,0,0,0,0,0,0,0,-0.0015,-0.0017,-0.0033,-0.0036,-0.0038,-0.0075,-0.008,-0.0103,-0.0096,-0.0075,-0.0097,-0.0097,-0.0132,-0.0136,-0.0145,-0.0176,-0.0178,-0.017,-0.0171,-0.0172,-0.0173,0,0,0,0,0,0,0,-0.0013,-0.0016,-0.0035,-0.0034,-0.0037,-0.006,-0.0063,-0.0084,-0.0102,-0.0077,-0.0079,-0.0084,-0.0134,-0.0143,-0.0147,-0.0179,-0.017,-0.0172,-0.0173,-0.0174,-0.0216,-0.0216,0,0,0,0,0,0,-0.0004,-0.0013,-0.0033,-0.0036,-0.0027,-0.006,-0.0064,-0.0063,-0.0102,-0.0108,-0.0084,-0.0086,-0.0139,-0.0144,-0.0149,-0.0143,-0.0172,-0.0175,-0.0176,-0.0217,-0.0216,-0.0216,0,0,0,0,0,0,-0.0003,-0.0005,-0.0031,-0.0027,-0.0031,-0.006,-0.0059,-0.0064,-0.0069,-0.0107,-0.0113,-0.0083,-0.0139,-0.0146,-0.0158,-0.0146,-0.0176,-0.0178,-0.0217,-0.0217,-0.0216,-0.0144,0,0,0,0,0,0,-0.0002,-0.0004,0.0001,-0.0026,-0.0031,-0.0032,-0.0059,-0.0065,-0.0072,-0.0074,-0.0109,-0.0115,-0.014,-0.0155,-0.0161,-0.015,-0.0179,-0.0217,-0.0217,-0.0216,-0.0146,-0.0141,-0.0136,0,0,0,0,0,-0.0001,0.0014,0.0002,-0.0001,-0.0024,-0.0031,-0.0036,-0.0058,-0.0072,-0.0065,-0.0091,-0.0114,-0.0156,-0.0156,-0.0163,-0.0153,-0.0218,-0.0217,-0.0216,-0.0149,-0.0142,-0.0136,0,0,0,0,0,0,0.0031,0.0011,-0.0003,0.0006,-0.0008,-0.0036,-0.0034,-0.0051,-0.0067,-0.0071,-0.0108,-0.0115,-0.0123,-0.0149,-0.0148,-0.0166,-0.0192,-0.0193,-0.0138,-0.0132,-0.0127,-0.0103,-0.0181,0,0,0,0,0,0.0039,0.0042,0.002,0.0026,0.0022,-0.0006,-0.0013,-0.0028,-0.0047,-0.0054,-0.0079,-0.0107,-0.0128,-0.0137,-0.0161,-0.0167,-0.0193,-0.0167,-0.0162,-0.0157,-0.0143,-0.0173,-0.0169,-0.0214,-0.0214,-0.0214,0,0,0.0051,0.0041,0.0041,0.0032,0.0018,0.0026,-0.001,-0.0014,-0.0004,-0.0059,-0.0053,-0.0089,-0.0126,-0.0133,-0.0139,-0.0151,-0.016,-0.0156,-0.0152,-0.014,-0.0172,-0.0168,-0.0164,-0.0214,-0.0214,-0.0214,0,0,0.0082,0.007,0.0085,0.0081,0.0066,0.0051,0.0054,0.0031,0.0025,0.0021,-0.0017,-0.0041,-0.0071,-0.0094,-0.011,-0.0091,-0.0132,-0.0104,-0.0056,-0.0085,-0.0081,-0.0078,-0.0109,-0.0109,-0.01,-0.01,-0.01,0,0.0097,0.0116,0.0089,0.0106,0.0112,0.0069,0.0094,0.0082,0.0058,0.0059,0.0035,-0.0013,-0.0049,-0.0056,-0.0053,-0.0077,-0.0102,-0.0073,-0.0076,-0.0074,-0.0072,-0.0105,-0.0106,-0.0096,-0.0097,-0.0097,-0.0097,0,0.0143,0.0158,0.0169,0.0177,0.0179,0.0193,0.0175,0.0177,0.0158,0.0138,0.0125,0.007,0.0045,0.0022,-0.0009,-0.0014,-0.004,-0.0066,-0.0087,-0.0063,-0.0099,-0.0102,-0.0091,-0.0093,-0.0094,-0.0094,0,0,0.0186,0.0199,0.0207,0.0228,0.0222,0.0233,0.0251,0.0259,0.0281,0.0235,0.0254,0.0196,0.0154,0.0133,0.008,0.0049,0.003,0.0003,-0.0001,-0.0019,-0.0035,-0.0039,-0.0043,0.0003,0.0003,0.0003,-0.0067,0,0.0235,0.0288,0.0279,0.0333,0.036,0.0339,0.0365,0.0362,0.0349,0.0355,0.0286,0.0274,0.02,0.0186,0.0143,0.0066,0.0028,0.0052,-0.0064,-0.0067,-0.0066,-0.0044,-0.0006,-0.0063,-0.007,-0.007,-0.007,0,0.0293,0.0322,0.0385,0.0423,0.0435,0.046,0.0501,0.0518,0.0505,0.0494,0.0458,0.0396,0.0344,0.0274,0.0156,0.0175,0.0079,0.0008,0.0003,-0.0024,-0.0075,-0.009,-0.0068,-0.0241,-0.0075,-0.0075,-0.0074,0,0.0354,0.0402,0.0459,0.0473,0.0504,0.0538,0.0556,0.0564,0.0599,0.0581,0.0593,0.0507,0.0483,0.0352,0.02,0.0178,0.0069,0.0017,-0.0081,-0.0083,-0.0083,-0.0085,-0.0232,-0.0071,-0.0071,-0.007,-0.007,0,0.0418,0.0466,0.0497,0.0533,0.0612,0.0606,0.0687,0.0694,0.0717,0.0776,0.0667,0.0691,0.0502,0.041,0.0246,0.0091,0.0102,-0.0061,-0.0095,-0.0058,-0.0056,-0.0234,-0.0335,-0.0073,-0.0072,-0.0072,-0.0071,0,0.0478,0.0496,0.0568,0.062,0.0646,0.0705,0.0782,0.0839,0.0842,0.0917,0.0914,0.0841,0.0729,0.0526,0.0331,0.0175,-0.0089,-0.0059,-0.0001,-0.0027,-0.0282,-0.0379,-0.0559,-0.0651,-0.0177,-0.0177,-0.0178,0,0.0512,0.0558,0.0641,0.0696,0.0726,0.081,0.0876,0.0907,0.0979,0.1022,0.1071,0.0981,0.0952,0.0656,0.0369,0.0091,-0.0097,-0.0072,-0.0113,-0.028,-0.0414,-0.0492,-0.0563,-0.0094,-0.0093,-0.0093,-0.0093,0,0.0582,0.0613,0.0673,0.0785,0.0868,0.0962,0.106,0.1136,0.1192,0.1259,0.1333,0.131,0.104,0.0786,0.0398,0.02,-0.0185,-0.0075,-0.0263,-0.0366,-0.0445,-0.0554,-0.0075,-0.009,-0.009,-0.009,-0.0091,-0.0091,0.0639,0.0693,0.0776,0.0882,0.0979,0.1103,0.1193,0.131,0.1442,0.1554,0.1537,0.155,0.1175,0.0661,0.0358,-0.0154,-0.0192,-0.0318,-0.0423,-0.0489,-0.0572,-0.0083,-0.0127,-0.0127,-0.0128,-0.0128,-0.0128,0,0.0707,0.0767,0.0867,0.0992,0.1101,0.1143,0.1309,0.1409,0.1581,0.1703,0.1772,0.1633,0.1156,0.0657,-0.0033,-0.0425,-0.058,-0.0646,-0.0758,-0.0818,-0.0388,-0.0376,-0.0457,-0.0457,-0.0457,-0.0457,-0.0457,-0.0457,0.0745,0.0845,0.0891,0.1073,0.1162,0.131,0.1406,0.1567,0.1696,0.1851,0.1896,0.1897,0.1557,0.0299,-0.0573,-0.0784,-0.1069,-0.1124,-0.1304,-0.1015,-0.0993,-0.0972,-0.0986,-0.1193,-0.1194,-0.1672,-0.1677,-0.1681]}],[{"header":{"parameterUnit":"m.s-1","parameterCategory":2,"la1":30.2991,"la2":30.254,"lo1":-89.0895,"lo2":-89.0444,"dx":0.0017,"dy":0.0017,"nx":28,"ny":28,"refTime":"2023-01-20T09:00:00:Z","depth":"2","parameterNumber":2,"parameterNumberName":"U-component_of_CURRENTS"},"data":[0,0,0,0,0,0,0,0,0,0,0,0,0,0,0,0,0,0,0,0,0,0,0,0,0,0,0,0,0,0,0,0,0,0,0,0,0,0,0,0,0,0,0,0,0,0,0,0,0,0,0,0,0,0,0,0,0,0,0.3114,0.3114,0,0.3135,0.3135,0.3135,0.313,0.313,0.313,0.313,0.3126,0.3126,0.3126,0,0,0,0,0,0,0,0,0,0,0,0,0,0.309,0.309,0.3113,0.3114,0.3115,0.3135,0.3135,0.3135,0.313,0.313,0.313,0.313,0.3126,0.3126,0.3126,0,0,0,0,0,0,0,0,0,0,0,0,0,0.3101,0.309,0.3113,0.3118,0.3119,0.3135,0.3135,0.3135,0.313,0.313,0.313,0.313,0.3126,0.3126,0.3126,0.3127,0,0,0.3126,0.3126,0,0,0,0,0,0,0,0,0.31,0.3101,0.3117,0.3118,0.3119,0.3133,0.3125,0.3132,0.313,0.3122,0.313,0.313,0.3129,0.3128,0.3128,0.3127,0.3127,0.3126,0.3126,0.3126,0.3126,0,0,0,0,0,0,0,0.3099,0.31,0.3118,0.3117,0.3119,0.3126,0.3127,0.3126,0.3122,0.3123,0.3123,0.3132,0.3129,0.3128,0.3127,0.3127,0.3126,0.3126,0.3126,0.3126,0.3182,0.3184,0,0,0,0,0,0,0.3103,0.3099,0.3118,0.3119,0.3113,0.3127,0.3128,0.3125,0.3123,0.3124,0.3132,0.3132,0.3128,0.3128,0.3127,0.3175,0.3126,0.3126,0.3126,0.3181,0.3182,0.3184,0,0,0,0,0,0,0.3102,0.3104,0.3117,0.3113,0.3116,0.3127,0.3125,0.3126,0.3137,0.3131,0.313,0.3144,0.3128,0.3127,0.3144,0.3173,0.3126,0.3125,0.3179,0.3181,0.3183,0.3241,0,0,0,0,0,0,0.3101,0.3103,0.3106,0.3113,0.3117,0.3133,0.3126,0.3127,0.3144,0.3144,0.3141,0.3139,0.3128,0.3144,0.3143,0.3172,0.3125,0.3177,0.318,0.3183,0.3237,0.3245,0.3252,0,0,0,0,0,0.31,0.31,0.3105,0.3108,0.3118,0.3134,0.3136,0.3142,0.3145,0.3151,0.3156,0.314,0.3162,0.3145,0.3144,0.3174,0.3175,0.3179,0.3182,0.3234,0.3244,0.3252,0,0,0,0,0,0,0.3079,0.31,0.3106,0.3109,0.3127,0.3135,0.3143,0.3151,0.316,0.3163,0.3154,0.3154,0.3183,0.3171,0.3152,0.32,0.3169,0.3172,0.3209,0.3217,0.3225,0.3244,0.3125,0,0,0,0,0,0.308,0.3091,0.3109,0.3113,0.3123,0.3137,0.3147,0.3155,0.3165,0.3169,0.3168,0.3176,0.3195,0.3199,0.3207,0.3226,0.3231,0.3248,0.3255,0.3261,0.3278,0.3311,0.3323,0.3196,0.3196,0.3195,0,0,0.3073,0.3087,0.3093,0.3112,0.3123,0.3148,0.3141,0.3161,0.3187,0.3167,0.3194,0.32,0.3208,0.3236,0.3248,0.3229,0.33,0.3266,0.3271,0.3285,0.3316,0.3328,0.3339,0.3198,0.3198,0.3197,0,0,0.3072,0.3079,0.3093,0.3114,0.3144,0.3158,0.317,0.3188,0.3201,0.3231,0.3233,0.3262,0.327,0.3291,0.3303,0.3356,0.3341,0.3355,0.3403,0.3435,0.3446,0.3455,0.3475,0.3486,0.3355,0.3355,0.3355,0,0.3068,0.3082,0.31,0.3125,0.3144,0.3168,0.3191,0.3215,0.3238,0.3255,0.3247,0.3299,0.3305,0.336,0.3385,0.3374,0.3382,0.3367,0.3445,0.3454,0.3463,0.3481,0.3492,0.3358,0.3358,0.3357,0.3357,0,0.3081,0.31,0.311,0.3153,0.3178,0.3199,0.3239,0.3266,0.3286,0.3309,0.3361,0.3376,0.3407,0.342,0.3422,0.3492,0.3474,0.3452,0.3421,0.3479,0.3494,0.3505,0.3363,0.3361,0.336,0.336,0,0,0.3051,0.3109,0.3113,0.3135,0.3193,0.321,0.3267,0.3315,0.3359,0.3387,0.3437,0.3488,0.3497,0.3513,0.352,0.3558,0.363,0.3538,0.3538,0.3555,0.3695,0.3654,0.3661,0.3617,0.362,0.3621,0.368,0,0.3056,0.3097,0.3131,0.3176,0.3197,0.3246,0.3296,0.3349,0.3397,0.3452,0.3491,0.3545,0.3532,0.3561,0.3596,0.3631,0.3661,0.3616,0.3639,0.364,0.3594,0.3673,0.3366,0.339,0.369,0.3692,0.3693,0,0.3055,0.3084,0.3123,0.3183,0.3198,0.3238,0.332,0.3372,0.3466,0.3505,0.3568,0.3598,0.3678,0.3651,0.3732,0.3702,0.371,0.3725,0.3726,0.3678,0.3619,0.3382,0.3398,0.371,0.3709,0.3708,0.3706,0,0.3012,0.3073,0.3101,0.3123,0.3202,0.3237,0.3288,0.3384,0.3436,0.3554,0.3598,0.3681,0.373,0.3765,0.3802,0.3774,0.3879,0.3834,0.3798,0.3794,0.3535,0.3504,0.3885,0.3885,0.3885,0.3885,0.3885,0,0.2992,0.3014,0.3085,0.3102,0.3144,0.3216,0.3284,0.3356,0.3465,0.3526,0.3621,0.3685,0.3764,0.3823,0.3836,0.3863,0.3902,0.3835,0.382,0.3546,0.3518,0.3791,0.378,0.3887,0.3887,0.3886,0.3886,0,0.2938,0.2986,0.302,0.3099,0.3125,0.316,0.3266,0.3314,0.3436,0.3524,0.3564,0.3707,0.3802,0.3859,0.3938,0.3904,0.3937,0.3924,0.3603,0.3551,0.3817,0.3808,0.3897,0.3897,0.3896,0.3896,0.3895,0,0.2912,0.2927,0.3,0.3016,0.3054,0.3117,0.3156,0.3284,0.3337,0.3524,0.3549,0.37,0.3767,0.3881,0.387,0.389,0.3947,0.3608,0.3509,0.3849,0.3825,0.3817,0.3808,0.3176,0.317,0.3165,0.3161,0,0.2862,0.2894,0.2923,0.2952,0.2989,0.3025,0.3094,0.3131,0.3278,0.3354,0.3467,0.3554,0.3684,0.3593,0.3651,0.3616,0.3586,0.3508,0.394,0.3239,0.3178,0.3153,0.3166,0.3115,0.312,0.3123,0.3125,0.3127,0.2824,0.2823,0.2857,0.2873,0.2905,0.2913,0.2905,0.2979,0.304,0.3113,0.3284,0.3299,0.336,0.3309,0.3217,0.3148,0.3402,0.3228,0.3239,0.3256,0.3181,0.3125,0.3036,0.304,0.3044,0.3047,0.3049,0,0.2747,0.2755,0.277,0.2771,0.2746,0.2806,0.2833,0.279,0.2791,0.2897,0.2958,0.2759,0.2724,0.2778,0.2611,0.2633,0.2551,0.2515,0.2367,0.2418,0.2461,0.2339,0.1974,0.197,0.1966,0.1963,0,0,0.2711,0.268,0.2675,0.2601,0.2602,0.2526,0.2512,0.2474,0.2496,0.2453,0.2431,0.2622,0.2723,0.2311,0.2271,0.209,0.2225,0.2004,0.2878,0.2757,0.2795,0.29,0.2775,0,0,0,0,0]},{"header":{"parameterUnit":"m.s-1","parameterCategory":2,"la1":30.2991,"la2":30.254,"lo1":-89.0895,"lo2":-89.0444,"dx":0.0017,"dy":0.0017,"nx":28,"ny":28,"refTime":"2023-01-20T09:00:00:Z","depth":"2","parameterNumber":3,"parameterNumberName":"V-component_of_CURRENTS"},"data":[0,0,0,0,0,0,0,0,0,0,0,0,0,0,0,0,0,0,0,0,0,0,0,0,0,0,0,0,0,0,0,0,0,0,0,0,0,0,0,0,0,0,0,0,0,0,0,0,0,0,0,0,0,0,0,0,0,0,0.0093,0.0092,0,0.0048,0.0047,0.0047,0.0018,0.0017,0.0017,0.0017,-0.0038,-0.004,-0.0041,0,0,0,0,0,0,0,0,0,0,0,0,0,0.0118,0.0118,0.0093,0.0092,0.0092,0.0048,0.0047,0.0047,0.0018,0.0017,0.0017,0.0017,-0.0038,-0.0039,-0.0041,0,0,0,0,0,0,0,0,0,0,0,0,0,0.0094,0.0118,0.0093,0.0072,0.0069,0.0048,0.0047,0.0047,0.0018,0.0017,0.0017,0.0017,-0.0037,-0.0039,-0.0041,-0.0047,0,0,-0.0047,-0.0048,0,0,0,0,0,0,0,0,0.0095,0.0093,0.0075,0.0073,0.007,0.0038,0.0036,0.0015,0.0018,0.0038,0.0017,0.0017,-0.0014,-0.0018,-0.0025,-0.0049,-0.0052,-0.0047,-0.0048,-0.0049,-0.005,0,0,0,0,0,0,0,0.0097,0.0094,0.0075,0.0075,0.0072,0.0052,0.0049,0.0032,0.0014,0.0036,0.0034,0.0028,-0.0015,-0.0023,-0.0026,-0.0052,-0.0047,-0.0049,-0.005,-0.0051,-0.0084,-0.0084,0,0,0,0,0,0,0.0104,0.0096,0.0077,0.0074,0.0082,0.0052,0.0048,0.0049,0.0015,0.0009,0.0029,0.0027,-0.002,-0.0024,-0.0028,-0.0022,-0.0049,-0.0051,-0.0052,-0.0084,-0.0084,-0.0084,0,0,0,0,0,0,0.0105,0.0103,0.0079,0.0083,0.0079,0.0052,0.0053,0.0048,0.0042,0.0009,0.0003,0.0028,-0.002,-0.0026,-0.0036,-0.0025,-0.0052,-0.0054,-0.0084,-0.0084,-0.0084,-0.0018,0,0,0,0,0,0,0.0106,0.0104,0.0107,0.0084,0.0079,0.0078,0.0053,0.0047,0.0039,0.0037,0.0007,0.0001,-0.0021,-0.0033,-0.0038,-0.0028,-0.0055,-0.0085,-0.0084,-0.0084,-0.002,-0.0015,-0.0011,0,0,0,0,0,0.0107,0.012,0.0108,0.0106,0.0085,0.0079,0.0075,0.0054,0.004,0.0046,0.0022,0.0002,-0.0034,-0.0034,-0.004,-0.003,-0.0085,-0.0084,-0.0084,-0.0023,-0.0016,-0.0011,0,0,0,0,0,0,0.0134,0.0117,0.0104,0.011,0.0099,0.0074,0.0075,0.0059,0.0045,0.0039,0.0008,0.0001,-0.0006,-0.0028,-0.0028,-0.004,-0.0064,-0.0064,-0.0015,-0.001,-0.0005,0.0015,-0.0057,0,0,0,0,0,0.0141,0.0144,0.0124,0.0129,0.0125,0.01,0.0093,0.0079,0.0062,0.0055,0.0033,0.0008,-0.0008,-0.0016,-0.0036,-0.0039,-0.0066,-0.0038,-0.0034,-0.0029,-0.0018,-0.0049,-0.0045,-0.0082,-0.0082,-0.0082,0,0,0.015,0.0142,0.0142,0.0134,0.0121,0.013,0.0096,0.0091,0.0102,0.0051,0.0057,0.0024,-0.0007,-0.001,-0.0016,-0.0026,-0.0035,-0.0029,-0.0024,-0.0015,-0.0047,-0.0044,-0.0041,-0.0081,-0.0081,-0.0081,0,0,0.0178,0.0166,0.018,0.0177,0.0164,0.0151,0.0153,0.0131,0.0126,0.0124,0.0089,0.0067,0.0043,0.0024,0.0012,0.0031,-0.0011,0.0019,0.0063,0.0033,0.0036,0.0038,0.0003,0.0002,0.0024,0.0024,0.0024,0,0.019,0.0208,0.0183,0.02,0.0207,0.0166,0.019,0.018,0.0158,0.016,0.0136,0.0094,0.0064,0.0061,0.0064,0.0043,0.0016,0.0046,0.0041,0.0042,0.0044,0.0007,0.0005,0.0027,0.0027,0.0026,0.0026,0,0.0232,0.0247,0.0257,0.0267,0.0269,0.0282,0.0267,0.0269,0.025,0.0233,0.0221,0.0172,0.015,0.0131,0.0104,0.0098,0.0071,0.0049,0.003,0.0051,0.0011,0.0007,0.0032,0.003,0.0029,0.0029,0,0,0.0268,0.0284,0.0291,0.0313,0.0309,0.032,0.0339,0.0347,0.0367,0.0324,0.0342,0.0291,0.025,0.0233,0.0186,0.0155,0.0131,0.0111,0.0107,0.0083,0.0059,0.0048,0.0042,0.0106,0.0106,0.0106,0.0026,0,0.0313,0.0365,0.0359,0.0411,0.0439,0.042,0.0447,0.0444,0.0432,0.0435,0.0373,0.0362,0.0294,0.0281,0.0239,0.0165,0.0125,0.0154,0.0036,0.0032,0.0026,0.0039,0.007,0.0002,0.0022,0.0021,0.0021,0,0.0367,0.0395,0.0457,0.0497,0.0508,0.0533,0.0572,0.0589,0.0576,0.0565,0.053,0.0472,0.0422,0.0358,0.0241,0.0261,0.0168,0.0099,0.0094,0.0061,0.0015,-0.0017,-0.0006,0.0014,0.0015,0.0015,0.0016,0,0.0422,0.0469,0.0525,0.054,0.0573,0.0605,0.0624,0.0631,0.0664,0.0645,0.0654,0.0571,0.0545,0.0419,0.0272,0.0255,0.0138,0.0096,-0.0007,-0.0009,-0.0016,-0.0019,0.0007,0.0008,0.0008,0.0008,0.0008,0,0.0481,0.0526,0.0559,0.0594,0.067,0.0667,0.0743,0.075,0.077,0.0822,0.0722,0.0738,0.056,0.0466,0.0311,0.0153,0.0166,0.0008,-0.0025,0.0006,0.0007,-0.0008,-0.0009,0.0005,0.0006,0.0006,0.0007,0,0.0534,0.0553,0.0623,0.0675,0.0701,0.0756,0.083,0.0883,0.0885,0.095,0.0947,0.0872,0.0754,0.0561,0.0369,0.0223,0.0058,-0.0008,0.004,0.0014,-0.0086,-0.0082,-0.0132,-0.0133,-0.0133,-0.0134,-0.0135,0,0.0565,0.0608,0.069,0.0741,0.0771,0.0851,0.0913,0.0945,0.1009,0.1042,0.1084,0.0987,0.0944,0.065,0.0378,0.0109,0.0063,-0.0049,-0.0079,-0.007,-0.0097,-0.0093,-0.0088,-0.0073,-0.0073,-0.0073,-0.0073,0,0.0628,0.0657,0.0714,0.082,0.0899,0.0989,0.1081,0.1149,0.1201,0.1255,0.1309,0.1274,0.1002,0.0738,0.0366,0.0188,-0.0005,-0.0058,-0.0054,-0.0035,-0.0018,-0.0044,-0.0041,-0.0073,-0.0073,-0.0073,-0.0073,-0.0073,0.0677,0.0726,0.0805,0.0905,0.0998,0.1113,0.1197,0.13,0.1416,0.1494,0.1471,0.1419,0.1122,0.0647,0.0328,-0.001,0.0005,-0.0123,-0.0121,-0.012,-0.0091,-0.0076,-0.0137,-0.0137,-0.0138,-0.0138,-0.0138,0,0.0735,0.0791,0.0884,0.1002,0.1104,0.1148,0.13,0.1381,0.1526,0.1591,0.163,0.1347,0.1051,0.0694,0.0192,-0.0098,-0.0115,-0.019,-0.0157,-0.0154,-0.0151,-0.0124,-0.018,-0.0181,-0.0182,-0.0183,0,0,0.0767,0.0858,0.09,0.1068,0.1155,0.1292,0.1381,0.1503,0.1582,0.1641,0.1614,0.1562,0.1146,0.0773,0.038,0.0086,0.0035,0.004,0.0109,0.0198,0.0203,-0.0073,-0.0022,0,0,0,0,0]}],[{"header":{"parameterUnit":"m.s-1","parameterCategory":2,"la1":30.2991,"la2":30.254,"lo1":-89.0895,"lo2":-89.0444,"dx":0.0017,"dy":0.0017,"nx":28,"ny":28,"refTime":"2023-01-20T09:00:00:Z","depth":"4","parameterNumber":2,"parameterNumberName":"U-component_of_CURRENTS"},"data":[0,0,0,0,0,0,0,0,0,0,0,0,0,0,0,0,0,0,0,0,0,0,0,0,0,0,0,0,0,0,0,0,0,0,0,0,0,0,0,0,0,0,0,0,0,0,0,0,0,0,0,0,0,0,0,0,0,0,0.2052,0.2053,0,0.2121,0.2122,0.2122,0.2184,0.2185,0.2186,0.2187,0.2263,0.2264,0.2265,0,0,0,0,0,0,0,0,0,0,0,0,0,0.1966,0.1967,0.2052,0.2053,0.2055,0.2121,0.2122,0.2122,0.2184,0.2185,0.2186,0.2187,0.2263,0.2264,0.2265,0,0,0,0,0,0,0,0,0,0,0,0,0,0.2013,0.1967,0.2052,0.2095,0.21,0.2121,0.2122,0.2122,0.2183,0.2185,0.2186,0.2188,0.2262,0.2264,0.2265,0.2245,0,0,0.2271,0.2271,0,0,0,0,0,0,0,0,0.201,0.2016,0.2088,0.2092,0.2098,0.2148,0.2119,0.2165,0.2183,0.2149,0.2187,0.2188,0.2226,0.2231,0.2236,0.2249,0.2252,0.2271,0.2272,0.2272,0.2273,0,0,0,0,0,0,0,0.2007,0.2013,0.2076,0.2089,0.2095,0.2109,0.2117,0.2128,0.2176,0.2152,0.2157,0.2169,0.2229,0.2234,0.2238,0.2253,0.2271,0.2272,0.2273,0.2274,0.2384,0.2386,0,0,0,0,0,0,0.2003,0.201,0.2074,0.2079,0.206,0.2109,0.2118,0.2128,0.2176,0.2185,0.2168,0.2172,0.2231,0.2236,0.2241,0.2337,0.2272,0.2274,0.2275,0.2383,0.2385,0.2387,0,0,0,0,0,0,0.2001,0.2008,0.2072,0.2048,0.2058,0.211,0.212,0.2129,0.2179,0.2188,0.2198,0.2215,0.2232,0.2239,0.2293,0.2336,0.2275,0.2276,0.238,0.2383,0.2386,0.2453,0,0,0,0,0,0,0.1998,0.2007,0.2033,0.2048,0.2059,0.2108,0.2119,0.2129,0.2183,0.219,0.2231,0.2237,0.2234,0.229,0.2294,0.2337,0.2277,0.2378,0.2382,0.2385,0.2448,0.2458,0.2466,0,0,0,0,0,0.1995,0.2013,0.2033,0.2043,0.2086,0.2109,0.2117,0.2156,0.2184,0.2207,0.2244,0.2238,0.2317,0.2293,0.2297,0.2342,0.2376,0.238,0.2385,0.2444,0.2456,0.2466,0,0,0,0,0,0,0.1987,0.2022,0.2044,0.2074,0.2104,0.2122,0.2154,0.2179,0.2225,0.2249,0.2258,0.2266,0.2331,0.2326,0.23,0.2385,0.2347,0.2353,0.2391,0.2402,0.2411,0.242,0.2279,0,0,0,0,0,0.1997,0.2028,0.2055,0.2085,0.2103,0.2138,0.2163,0.219,0.2223,0.2247,0.2276,0.2311,0.2343,0.2367,0.2388,0.243,0.2431,0.2464,0.2473,0.248,0.2491,0.2527,0.254,0.2401,0.2401,0.2401,0,0,0.2004,0.2029,0.2049,0.2088,0.2117,0.2149,0.2157,0.2205,0.2246,0.2246,0.2321,0.2344,0.2362,0.2414,0.2442,0.2422,0.2521,0.2486,0.2492,0.2499,0.2533,0.2546,0.2558,0.2404,0.2404,0.2403,0,0,0.2018,0.2056,0.2084,0.2113,0.2166,0.2185,0.2209,0.2252,0.2291,0.2352,0.2369,0.2423,0.2467,0.249,0.2506,0.2576,0.2567,0.2589,0.2642,0.2677,0.2688,0.2698,0.2718,0.273,0.2593,0.2594,0.2594,0,0.2032,0.2064,0.2096,0.2129,0.2161,0.2207,0.2241,0.2282,0.2342,0.2375,0.239,0.2484,0.2504,0.2566,0.26,0.2598,0.261,0.2598,0.2688,0.2698,0.2707,0.2725,0.2737,0.2597,0.2597,0.2596,0.2596,0,0.2052,0.2096,0.2116,0.2175,0.2212,0.2251,0.2303,0.2358,0.2414,0.245,0.2538,0.2571,0.2626,0.2645,0.265,0.2729,0.2715,0.2693,0.2658,0.2725,0.274,0.2751,0.2603,0.2601,0.26,0.2599,0,0,0.2029,0.2114,0.2127,0.2162,0.2242,0.2267,0.2347,0.2413,0.2475,0.2544,0.2616,0.2689,0.2719,0.2739,0.2756,0.2795,0.2877,0.2784,0.2784,0.2799,0.2953,0.2771,0.2764,0.2874,0.2876,0.2878,0.2938,0,0.2039,0.2099,0.2146,0.2216,0.2247,0.2318,0.2383,0.2457,0.2531,0.2612,0.2671,0.275,0.275,0.2798,0.2838,0.2872,0.2909,0.2863,0.2891,0.2892,0.2716,0.2772,0.2885,0.2946,0.2948,0.295,0.2951,0,0.2035,0.2079,0.2145,0.2234,0.2257,0.2317,0.2429,0.2496,0.2613,0.2673,0.2761,0.2809,0.2902,0.2887,0.2977,0.295,0.2966,0.298,0.2982,0.2794,0.2728,0.2865,0.297,0.2969,0.2967,0.2966,0.2965,0,0.198,0.2073,0.2129,0.2161,0.2271,0.2331,0.2404,0.2523,0.2588,0.2733,0.2793,0.2892,0.2961,0.3004,0.3046,0.3027,0.3124,0.3089,0.2935,0.2922,0.3039,0.3028,0.3146,0.3146,0.3146,0.3146,0.3146,0,0.1944,0.1993,0.212,0.2148,0.2227,0.232,0.2422,0.251,0.264,0.271,0.283,0.2889,0.3,0.3059,0.3076,0.3035,0.3147,0.2953,0.2927,0.3066,0.3057,0.3047,0.3034,0.3148,0.3148,0.3147,0.3147,0,0.1868,0.1951,0.2023,0.2156,0.2205,0.2269,0.2423,0.2483,0.2628,0.2726,0.2778,0.292,0.2993,0.3064,0.3141,0.3053,0.3048,0.3005,0.3161,0.3142,0.2816,0.2807,0.2828,0.2822,0.2817,0.2812,0.2809,0,0.1828,0.1862,0.2015,0.2062,0.2134,0.2245,0.2309,0.2465,0.2521,0.2713,0.2731,0.2872,0.2941,0.2891,0.2992,0.2998,0.2965,0.2935,0.2862,0.2812,0.2786,0.2784,0.2782,0.2801,0.28,0.2798,0.2797,0,0.1751,0.1832,0.1893,0.199,0.2074,0.2143,0.225,0.2273,0.2436,0.2585,0.2616,0.2654,0.2726,0.2771,0.2797,0.28,0.2937,0.2881,0.2891,0.2822,0.278,0.2758,0.2762,0.278,0.2782,0.2784,0.2785,0,0.1706,0.1729,0.1825,0.189,0.1986,0.201,0.2082,0.2133,0.2203,0.2396,0.2407,0.2553,0.2695,0.267,0.2701,0.2683,0.2638,0.2537,0.2564,0.2584,0.2477,0.2386,0.2248,0,0,0,0,0,0.1641,0.1651,0.1709,0.1767,0.1852,0.1905,0.202,0.2091,0.2241,0.2195,0.229,0.2343,0.2383,0.2468,0.2401,0.261,0.2661,0.2522,0.2561,0.2683,0.2703,0.2599,0,0,0,0,0,0,0.1597,0.1651,0.1663,0.1646,0.1662,0.1731,0.1799,0.1904,0.188,0.2044,0.2075,0.22,0.2276,0.2393,0.2356,0.2381,0.2355,0.2618,0.2612,0.2672,0.269,0.2706,0.2606,0,0,0,0,0]},{"header":{"parameterUnit":"m.s-1","parameterCategory":2,"la1":30.2991,"la2":30.254,"lo1":-89.0895,"lo2":-89.0444,"dx":0.0017,"dy":0.0017,"nx":28,"ny":28,"refTime":"2023-01-20T09:00:00:Z","depth":"4","parameterNumber":3,"parameterNumberName":"V-component_of_CURRENTS"},"data":[0,0,0,0,0,0,0,0,0,0,0,0,0,0,0,0,0,0,0,0,0,0,0,0,0,0,0,0,0,0,0,0,0,0,0,0,0,0,0,0,0,0,0,0,0,0,0,0,0,0,0,0,0,0,0,0,0,0,0.0156,0.0155,0,0.013,0.0129,0.0129,0.0114,0.0114,0.0114,0.0114,0.0082,0.0081,0.008,0,0,0,0,0,0,0,0,0,0,0,0,0,0.0168,0.0168,0.0156,0.0155,0.0155,0.013,0.0129,0.0129,0.0114,0.0114,0.0114,0.0114,0.0082,0.0081,0.008,0,0,0,0,0,0,0,0,0,0,0,0,0,0.0155,0.0168,0.0156,0.0144,0.0143,0.013,0.0129,0.0129,0.0114,0.0114,0.0114,0.0114,0.0082,0.0081,0.008,0.0077,0,0,0.0077,0.0076,0,0,0,0,0,0,0,0,0.0156,0.0155,0.0146,0.0145,0.0143,0.0124,0.0122,0.0111,0.0114,0.0126,0.0114,0.0114,0.0095,0.0093,0.009,0.0075,0.0074,0.0077,0.0076,0.0076,0.0075,0,0,0,0,0,0,0,0.0157,0.0156,0.0146,0.0146,0.0144,0.0132,0.013,0.012,0.0112,0.0125,0.0124,0.012,0.0095,0.0091,0.0089,0.0073,0.0077,0.0076,0.0075,0.0075,0.006,0.006,0,0,0,0,0,0,0.016,0.0157,0.0147,0.0145,0.0149,0.0132,0.013,0.0131,0.0112,0.0109,0.012,0.0119,0.0093,0.009,0.0088,0.0099,0.0076,0.0075,0.0074,0.0059,0.006,0.006,0,0,0,0,0,0,0.0161,0.016,0.0148,0.0149,0.0147,0.0132,0.0133,0.0131,0.013,0.0109,0.0105,0.0122,0.0093,0.0089,0.0086,0.0097,0.0074,0.0073,0.0059,0.006,0.006,0.0111,0,0,0,0,0,0,0.0161,0.016,0.0165,0.015,0.0147,0.015,0.0133,0.013,0.0127,0.0126,0.0109,0.0106,0.0092,0.0087,0.0084,0.0095,0.0072,0.0059,0.0059,0.006,0.0109,0.0113,0.0117,0,0,0,0,0,0.0162,0.0171,0.0166,0.0164,0.0153,0.015,0.0148,0.0136,0.0128,0.0134,0.0121,0.0107,0.0088,0.0087,0.0083,0.0094,0.0059,0.0059,0.006,0.0107,0.0112,0.0117,0,0,0,0,0,0,0.0179,0.017,0.0164,0.017,0.0164,0.0148,0.015,0.0141,0.0135,0.0132,0.0112,0.0108,0.0108,0.0093,0.0092,0.009,0.007,0.007,0.0108,0.0112,0.0116,0.0129,0.0071,0,0,0,0,0,0.0185,0.019,0.0178,0.0183,0.0181,0.0166,0.0163,0.0155,0.0146,0.0143,0.013,0.0116,0.0107,0.0104,0.0092,0.0094,0.0067,0.0096,0.01,0.0104,0.0111,0.0081,0.0083,0.0062,0.0062,0.0062,0,0,0.0192,0.0188,0.019,0.0187,0.018,0.0189,0.0165,0.0164,0.0175,0.014,0.015,0.0129,0.011,0.0111,0.011,0.0102,0.0094,0.0105,0.0108,0.0113,0.0082,0.0084,0.0086,0.0063,0.0062,0.0062,0,0,0.0212,0.0206,0.0218,0.0219,0.0213,0.0205,0.0207,0.0195,0.0195,0.0199,0.0175,0.0162,0.0152,0.0139,0.0132,0.015,0.0114,0.0143,0.0176,0.0148,0.0149,0.0151,0.0113,0.011,0.0147,0.0147,0.0147,0,0.0221,0.0237,0.0221,0.0236,0.0243,0.0216,0.0236,0.0232,0.0221,0.0225,0.021,0.0187,0.0167,0.0168,0.0173,0.016,0.0133,0.0163,0.0153,0.0154,0.0154,0.0115,0.0112,0.015,0.015,0.0149,0.0149,0,0.0251,0.0267,0.0275,0.0286,0.0291,0.0302,0.0296,0.0301,0.0292,0.0282,0.0279,0.0247,0.0235,0.0222,0.0205,0.0199,0.0175,0.0161,0.0144,0.016,0.0117,0.0113,0.0154,0.0153,0.0152,0.0151,0,0,0.0271,0.0292,0.0299,0.0319,0.0322,0.0332,0.0351,0.0362,0.0379,0.0353,0.0368,0.0339,0.0309,0.0299,0.0266,0.0239,0.0211,0.0205,0.0202,0.0171,0.0139,0.0122,0.0115,0.0194,0.0194,0.0194,0.0106,0,0.0303,0.0346,0.0348,0.0393,0.0415,0.0409,0.0433,0.0436,0.043,0.0435,0.0393,0.0389,0.0343,0.0336,0.0301,0.0238,0.0202,0.0236,0.0125,0.0121,0.0109,0.0111,0.0193,0.0102,0.0101,0.01,0.01,0,0.0339,0.0365,0.0417,0.0457,0.0467,0.0492,0.0528,0.0546,0.0539,0.0534,0.051,0.0469,0.043,0.0386,0.0283,0.0306,0.0229,0.017,0.0165,0.0132,0.0097,0.0083,0.0091,0.0091,0.0092,0.0093,0.0093,0,0.0371,0.0417,0.0464,0.0479,0.0515,0.0547,0.0568,0.0579,0.0606,0.0596,0.0602,0.0538,0.0516,0.0415,0.0293,0.0288,0.017,0.0147,0.0054,0.0052,0.007,0.0069,0.0068,0.0068,0.0069,0.0069,0.0069,0,0.0407,0.0446,0.0488,0.0517,0.0583,0.0592,0.0657,0.0667,0.0687,0.0719,0.0656,0.0656,0.0523,0.0437,0.0314,0.0174,0.0184,0.0061,0.0031,0.0092,0.0095,0.0065,0.0066,0.0066,0.0066,0.0067,0.0067,0,0.0432,0.0458,0.0519,0.0575,0.0602,0.065,0.0723,0.0762,0.0773,0.0813,0.0814,0.0747,0.0634,0.0486,0.032,0.0212,0.0073,0.0016,0.0091,0.0067,-0.0037,-0.0032,-0.0096,-0.0097,-0.0098,-0.0099,-0.0099,0,0.0446,0.0482,0.0565,0.0609,0.0642,0.0716,0.0769,0.0807,0.0849,0.0867,0.0884,0.0797,0.0728,0.0487,0.0322,0.0083,0.0045,-0.0034,-0.0038,-0.003,-0.0052,-0.0046,-0.004,-0.0101,-0.0101,-0.0102,-0.0102,0,0.0473,0.0507,0.0556,0.0648,0.0718,0.0795,0.0872,0.0907,0.095,0.0964,0.0942,0.0819,0.0688,0.0491,0.0308,0.0136,0.0016,-0.0046,-0.0045,-0.005,-0.0037,-0.0057,-0.005,-0.0106,-0.0105,-0.0105,-0.0104,0,0.0494,0.053,0.0598,0.0678,0.0767,0.0845,0.0886,0.0935,0.0977,0.0994,0.0986,0.0846,0.0773,0.0518,0.035,0.0179,0.0125,0.0061,0.0055,0.0057,0.0123,0.0163,0.0135,0,0,0,0,0,0.0508,0.0547,0.0621,0.0708,0.0795,0.085,0.0941,0.0973,0.1018,0.1011,0.1002,0.0879,0.0637,0.0535,0.036,0.0307,0.0081,0.0093,0.0001,-0.0125,-0.0121,-0.0071,0,0,0,0,0,0,0.0515,0.0581,0.0615,0.0717,0.0778,0.0878,0.0938,0.097,0.0966,0.0985,0.0862,0.0821,0.0585,0.0736,0.0353,0.0302,0.0215,-0.0012,-0.0016,-0.0128,-0.0124,-0.0121,-0.0068,0,0,0,0,0]}]]